Terminal Aerodrome Forecast
Issued by NWS Dallas/Fort Worth, TX

Home | Current Version | Previous Version | Text Only | Print | Product List | Glossary On
Versions: 1 2 3 4 5 6 7 8 9 10 11 12 13 14 15 16 17 18 19 20 21 22 23 24 25 26 27 28
000
FTUS44 KFWD 051725
TAFACT
TAF
KACT 051725Z 0518/0618 18018KT P6SM SCT030 SCT250
     FM060900 18015KT P6SM BKN015
     FM061600 18019KT P6SM BKN025
     FM061700 18022KT P6SM SCT040=

USA.gov is the U.S. government's official web portal to all federal, state and local government web resources and services.